When you browse on this site, cookies collect data to enhance your experience and personalize the content and advertising you see.
Visit our Privacy Policy to learn more. By continuing to use the site, you agree to this use of cookies and data.

Hourly Weather Elizavetino

Today, 9 July, Thursday

Time Temperature Precipitation Wind Pressure Humidity
00:00 +19°C° 0.4 mm 2 mps 743 mmHg 96%
01:00 +18°C° 1.2 mm 3 mps 742 mmHg 95%
02:00 +17°C° 1.2 mm 3 mps 742 mmHg 95%
03:00 +16°C° 1.2 mm 3 mps 742 mmHg 95%
04:00 +14°C° 3.5 mm 3 mps 742 mmHg 95%
05:00 +14°C° 3.5 mm 4 mps 743 mmHg 95%
06:00 +13°C° 3.5 mm 4 mps 743 mmHg 95%
07:00 +13°C° 0.6 mm 4 mps 743 mmHg 93%
08:00 +13°C° 0.6 mm 4 mps 744 mmHg 91%
09:00 +14°C° 0.6 mm 4 mps 744 mmHg 90%
10:00 +15°C° 0 mm 4 mps 745 mmHg 80%
11:00 +18°C° 0 mm 4 mps 745 mmHg 70%
12:00 +20°C° 0 mm 4 mps 746 mmHg 60%
13:00 +21°C° 0 mm 4 mps 746 mmHg 56%
14:00 +22°C° 0 mm 3 mps 746 mmHg 51%
15:00 +24°C° 0 mm 3 mps 747 mmHg 47%
16:00 +22°C° 0 mm 3 mps 747 mmHg 50%
17:00 +22°C° 0 mm 3 mps 747 mmHg 53%
18:00 +23°C° 0 mm 2 mps 747 mmHg 56%
19:00 +20°C° 0.1 mm 2 mps 747 mmHg 64%
20:00 +18°C° 0.1 mm 2 mps 747 mmHg 72%
21:00 +17°C° 0.1 mm 2 mps 747 mmHg 80%
22:00 +16°C° 0 mm 2 mps 748 mmHg 82%
23:00 +15°C° 0 mm 2 mps 748 mmHg 85%

Tomorrow, 10 July, Friday

Time Temperature Precipitation Wind Pressure Humidity
00:00 +14°C° 0 mm 2 mps 748 mmHg 87%
01:00 +14°C° 0 mm 2 mps 749 mmHg 88%
02:00 +13°C° 0 mm 2 mps 749 mmHg 90%
03:00 +13°C° 0 mm 2 mps 749 mmHg 91%
04:00 +13°C° 0 mm 2 mps 750 mmHg 89%
05:00 +14°C° 0 mm 2 mps 750 mmHg 86%
06:00 +14°C° 0 mm 2 mps 750 mmHg 84%
07:00 +16°C° 0 mm 2 mps 751 mmHg 75%
08:00 +18°C° 0 mm 2 mps 751 mmHg 67%
09:00 +19°C° 0 mm 2 mps 751 mmHg 58%
10:00 +20°C° 0 mm 2 mps 751 mmHg 53%
11:00 +21°C° 0 mm 2 mps 752 mmHg 49%
12:00 +23°C° 0 mm 2 mps 752 mmHg 44%
13:00 +23°C° 0 mm 2 mps 752 mmHg 43%
14:00 +24°C° 0 mm 3 mps 752 mmHg 42%
15:00 +24°C° 0 mm 3 mps 752 mmHg 42%
16:00 +24°C° 0 mm 3 mps 752 mmHg 45%
17:00 +23°C° 0 mm 2 mps 752 mmHg 49%
18:00 +23°C° 0 mm 2 mps 752 mmHg 53%
19:00 +20°C° 0 mm 2 mps 752 mmHg 60%
20:00 +18°C° 0 mm 2 mps 752 mmHg 67%
21:00 +17°C° 0 mm 2 mps 752 mmHg 75%
22:00 +16°C° 0 mm 2 mps 752 mmHg 76%
23:00 +15°C° 0 mm 2 mps 752 mmHg 78%

Day after tomorrow, 11 July, Saturday

Time Temperature Precipitation Wind Pressure Humidity
00:00 +15°C° 0 mm 2 mps 752 mmHg 79%
01:00 +14°C° 0 mm 2 mps 752 mmHg 82%
02:00 +14°C° 0 mm 2 mps 752 mmHg 84%
03:00 +13°C° 0 mm 3 mps 752 mmHg 87%
04:00 +14°C° 0 mm 3 mps 752 mmHg 86%
05:00 +16°C° 0 mm 3 mps 752 mmHg 84%
06:00 +16°C° 0 mm 3 mps 753 mmHg 83%
07:00 +18°C° 0 mm 4 mps 753 mmHg 77%
08:00 +20°C° 0 mm 4 mps 753 mmHg 72%
09:00 +22°C° 0 mm 4 mps 753 mmHg 66%
10:00 +23°C° 0 mm 4 mps 752 mmHg 63%
11:00 +25°C° 0 mm 5 mps 752 mmHg 61%
12:00 +26°C° 0 mm 5 mps 752 mmHg 58%
13:00 +27°C° 0 mm 5 mps 752 mmHg 58%
14:00 +27°C° 0 mm 5 mps 752 mmHg 58%
15:00 +28°C° 0 mm 5 mps 752 mmHg 58%
16:00 +27°C° 0 mm 5 mps 752 mmHg 61%
17:00 +27°C° 0 mm 5 mps 751 mmHg 64%
18:00 +26°C° 0 mm 4 mps 751 mmHg 66%
19:00 +25°C° 0 mm 4 mps 751 mmHg 73%
20:00 +24°C° 0 mm 3 mps 751 mmHg 79%
21:00 +21°C° 0 mm 3 mps 751 mmHg 85%
22:00 +20°C° 0 mm 3 mps 751 mmHg 87%
23:00 +20°C° 0 mm 3 mps 751 mmHg 90%

12 July, Sunday

Time Temperature Precipitation Wind Pressure Humidity
00:00 +19°C° 0 mm 3 mps 751 mmHg 93%
01:00 +19°C° 0 mm 3 mps 751 mmHg 93%
02:00 +18°C° 0 mm 2 mps 751 mmHg 94%
03:00 +18°C° 0 mm 2 mps 751 mmHg 94%
04:00 +18°C° 0 mm 2 mps 751 mmHg 92%
05:00 +19°C° 0 mm 3 mps 750 mmHg 89%
06:00 +19°C° 0 mm 3 mps 750 mmHg 87%
07:00 +21°C° 0 mm 3 mps 750 mmHg 81%
08:00 +22°C° 0 mm 3 mps 751 mmHg 76%
09:00 +25°C° 0 mm 3 mps 751 mmHg 71%
10:00 +26°C° 0 mm 3 mps 750 mmHg 67%
11:00 +27°C° 0 mm 3 mps 750 mmHg 63%
12:00 +28°C° 0 mm 3 mps 750 mmHg 58%
13:00 +28°C° 0 mm 3 mps 750 mmHg 57%
14:00 +29°C° 0 mm 3 mps 749 mmHg 55%
15:00 +29°C° 0 mm 3 mps 749 mmHg 54%
16:00 +29°C° 0 mm 3 mps 749 mmHg 56%
17:00 +28°C° 0 mm 3 mps 748 mmHg 58%
18:00 +28°C° 0 mm 2 mps 748 mmHg 61%
19:00 +26°C° 0 mm 2 mps 748 mmHg 68%
20:00 +24°C° 0 mm 2 mps 748 mmHg 75%
21:00 +21°C° 0 mm 2 mps 748 mmHg 82%
22:00 +21°C° 0 mm 1 mps 747 mmHg 84%
23:00 +20°C° 0 mm 1 mps 747 mmHg 86%

13 July, Monday

Time Temperature Precipitation Wind Pressure Humidity
00:00 +20°C° 0 mm 1 mps 747 mmHg 88%
01:00 +19°C° 0 mm 1 mps 747 mmHg 88%
02:00 +19°C° 0 mm 1 mps 746 mmHg 88%
03:00 +19°C° 0 mm 1 mps 746 mmHg 88%
04:00 +19°C° 0.1 mm 1 mps 745 mmHg 87%
05:00 +19°C° 0.1 mm 2 mps 745 mmHg 86%
06:00 +19°C° 0.1 mm 2 mps 745 mmHg 84%
07:00 +20°C° 0.6 mm 2 mps 744 mmHg 83%
08:00 +23°C° 0.6 mm 2 mps 744 mmHg 82%
09:00 +24°C° 0.6 mm 3 mps 744 mmHg 81%
10:00 +26°C° 1 mm 3 mps 743 mmHg 76%
11:00 +27°C° 1 mm 3 mps 743 mmHg 71%
12:00 +29°C° 1 mm 3 mps 743 mmHg 66%
13:00 +29°C° 1.6 mm 3 mps 743 mmHg 66%
14:00 +29°C° 1.6 mm 3 mps 742 mmHg 66%
15:00 +29°C° 1.6 mm 4 mps 742 mmHg 67%
16:00 +27°C° 2.4 mm 3 mps 741 mmHg 73%
17:00 +26°C° 2.4 mm 3 mps 741 mmHg 80%
18:00 +24°C° 2.4 mm 2 mps 741 mmHg 86%
19:00 +23°C° 0.5 mm 2 mps 740 mmHg 88%
20:00 +23°C° 0.5 mm 2 mps 740 mmHg 90%
21:00 +21°C° 0.5 mm 2 mps 740 mmHg 92%
22:00 +21°C° 0.2 mm 2 mps 739 mmHg 93%
23:00 +20°C° 0.2 mm 2 mps 739 mmHg 94%

14 July, Tuesday

Time Temperature Precipitation Wind Pressure Humidity
00:00 +20°C° 0.2 mm 2 mps 738 mmHg 95%
01:00 +19°C° 0.3 mm 2 mps 738 mmHg 95%
02:00 +19°C° 0.3 mm 2 mps 738 mmHg 96%
03:00 +20°C° 0.3 mm 1 mps 738 mmHg 97%
04:00 +19°C° 0.1 mm 2 mps 738 mmHg 97%
05:00 +19°C° 0.1 mm 2 mps 737 mmHg 96%
06:00 +20°C° 0.1 mm 3 mps 737 mmHg 96%
07:00 +20°C° 0.2 mm 3 mps 737 mmHg 95%
08:00 +20°C° 0.2 mm 3 mps 737 mmHg 94%
09:00 +20°C° 0.2 mm 3 mps 738 mmHg 92%
10:00 +20°C° 0.1 mm 4 mps 738 mmHg 90%
11:00 +21°C° 0.1 mm 4 mps 738 mmHg 89%
12:00 +21°C° 0.1 mm 5 mps 738 mmHg 87%
13:00 +21°C° 0.1 mm 5 mps 738 mmHg 82%
14:00 +21°C° 0.1 mm 6 mps 739 mmHg 77%
15:00 +21°C° 0.1 mm 6 mps 739 mmHg 72%
16:00 +21°C° 0 mm 6 mps 739 mmHg 73%
17:00 +20°C° 0 mm 5 mps 739 mmHg 73%
18:00 +20°C° 0 mm 5 mps 739 mmHg 73%
19:00 +19°C° 0.1 mm 5 mps 739 mmHg 78%
20:00 +16°C° 0.1 mm 5 mps 739 mmHg 83%
21:00 +15°C° 0.1 mm 4 mps 739 mmHg 88%
22:00 +15°C° 0 mm 4 mps 739 mmHg 88%
23:00 +15°C° 0 mm 4 mps 739 mmHg 88%
Show more